| time (UTC) | temp F | wind direction | speed MPH | gust MPH | rain 1hr in | rain 24hr in | rain mn in | humidity % | barometer mb |
| 20260504035249 | 51 | 345 | 7.0 | 16.0 | 0.00 | 0.00 | 0.00 | 37 | 1014.1 |
| 20260504034749 | 52 | 326 | 8.0 | 16.0 | 0.00 | 0.00 | 0.00 | 37 | 1014.1 |
| 20260504034251 | 52 | 348 | 8.0 | 16.0 | 0.00 | 0.00 | 0.00 | 36 | 1014.0 |
| 20260504033752 | 52 | 332 | 8.0 | 15.0 | 0.00 | 0.00 | 0.00 | 36 | 1013.8 |
| 20260504033250 | 52 | 321 | 8.0 | 16.0 | 0.00 | 0.00 | 0.00 | 35 | 1013.8 |
| 20260504032750 | 53 | 327 | 8.0 | 19.0 | 0.00 | 0.00 | 0.00 | 35 | 1013.7 |
| 20260504032250 | 53 | 319 | 9.0 | 19.0 | 0.00 | 0.00 | 0.00 | 34 | 1013.4 |
| 20260504031751 | 53 | 3 | 9.0 | 16.0 | 0.00 | 0.00 | 0.00 | 34 | 1013.4 |
| 20260504031246 | 53 | 330 | 9.0 | 19.0 | 0.00 | 0.00 | 0.00 | 34 | 1013.4 |
| 20260504030748 | 53 | 350 | 9.0 | 19.0 | 0.00 | 0.00 | 0.00 | 34 | 1013.0 |
| 20260504030246 | 54 | 14 | 9.0 | 19.0 | 0.00 | 0.00 | 0.00 | 35 | 1013.0 |
| 20260504025246 | 54 | 342 | 9.0 | 24.0 | 0.00 | 0.00 | 0.00 | 35 | 1012.9 |
| 20260504024747 | 54 | 343 | 9.0 | 24.0 | 0.00 | 0.00 | 0.00 | 36 | 1012.8 |
| 20260504024247 | 54 | 354 | 8.0 | 14.0 | 0.00 | 0.00 | 0.00 | 37 | 1012.8 |
| 20260504023753 | 54 | 339 | 8.0 | 15.0 | 0.00 | 0.00 | 0.00 | 39 | 1012.8 |
| 20260504023247 | 54 | 327 | 8.0 | 15.0 | 0.00 | 0.00 | 0.00 | 38 | 1012.7 |
| 20260504022748 | 54 | 340 | 6.0 | 14.0 | 0.00 | 0.00 | 0.00 | 39 | 1012.9 |
| 20260504022247 | 55 | 331 | 6.0 | 14.0 | 0.00 | 0.00 | 0.00 | 39 | 1012.8 |
| 20260504021748 | 55 | 16 | 6.0 | 13.0 | 0.00 | 0.00 | 0.00 | 39 | 1012.8 |
| 20260504021246 | 55 | 341 | 6.0 | 13.0 | 0.00 | 0.00 | 0.00 | 40 | 1012.8 |
| 20260504020750 | 55 | 356 | 6.0 | 13.0 | 0.00 | 0.00 | 0.00 | 40 | 1012.7 |
| 20260504020244 | 55 | 336 | 6.0 | 13.0 | 0.00 | 0.00 | 0.00 | 40 | 1012.8 |
| 20260504015745 | 55 | 354 | 7.0 | 13.0 | 0.00 | 0.00 | 0.00 | 39 | 1012.7 |
| 20260504015245 | 55 | 359 | 7.0 | 19.0 | 0.00 | 0.00 | 0.00 | 39 | 1012.7 |
| 20260504014745 | 56 | 347 | 7.0 | 19.0 | 0.00 | 0.00 | 0.00 | 38 | 1012.8 |
| 20260504013751 | 56 | 351 | 7.0 | 14.0 | 0.00 | 0.00 | 0.00 | 37 | 1012.6 |
| 20260504013245 | 56 | 348 | 7.0 | 14.0 | 0.00 | 0.00 | 0.00 | 37 | 1012.5 |
| 20260504012745 | 56 | 347 | 7.0 | 15.0 | 0.00 | 0.00 | 0.00 | 37 | 1012.2 |
| 20260504012245 | 56 | 14 | 9.0 | 19.0 | 0.00 | 0.00 | 0.00 | 37 | 1012.2 |
| 20260504011743 | 57 | 353 | 9.0 | 19.0 | 0.00 | 0.00 | 0.00 | 37 | 1012.2 |
| 20260504010743 | 57 | 328 | 9.0 | 19.0 | 0.00 | 0.00 | 0.00 | 37 | 1011.9 |
| 20260504010243 | 57 | 332 | 9.0 | 19.0 | 0.00 | 0.00 | 0.00 | 37 | 1012.1 |
| 20260504005743 | 57 | 338 | 9.0 | 17.0 | 0.00 | 0.00 | 0.00 | 39 | 1012.1 |
| 20260504005242 | 58 | 336 | 7.0 | 17.0 | 0.00 | 0.00 | 0.00 | 39 | 1011.8 |
| 20260504004743 | 58 | 335 | 6.0 | 15.0 | 0.00 | 0.00 | 0.00 | 38 | 1011.9 |
| 20260504004243 | 58 | 336 | 7.0 | 15.0 | 0.00 | 0.00 | 0.00 | 38 | 1011.8 |
| 20260504003750 | 58 | 12 | 8.0 | 15.0 | 0.00 | 0.00 | 0.00 | 39 | 1011.7 |
| 20260504003244 | 58 | 330 | 7.0 | 15.0 | 0.00 | 0.00 | 0.00 | 38 | 1011.7 |
| 20260504002743 | 57 | 337 | 6.0 | 14.0 | 0.00 | 0.00 | 0.00 | 39 | 1011.6 |
| 20260504002242 | 58 | 339 | 8.0 | 19.0 | 0.00 | 0.00 | 0.00 | 38 | 1011.8 |
| 20260504001240 | 58 | 330 | 8.0 | 18.0 | 0.00 | 0.00 | 0.00 | 38 | 1011.7 |
| 20260504000741 | 58 | 5 | 7.0 | 16.0 | 0.00 | 0.00 | 0.00 | 38 | 1011.7 |
| 20260504000241 | 58 | 328 | 8.0 | 16.0 | 0.00 | 0.00 | 0.00 | 38 | 1011.6 |
| 20260503235741 | 58 | 334 | 8.0 | 20.0 | 0.00 | 0.00 | 0.00 | 38 | 1011.6 |
| 20260503235242 | 58 | 323 | 7.0 | 20.0 | 0.00 | 0.00 | 0.00 | 38 | 1011.6 |
| 20260503234741 | 58 | 336 | 7.0 | 14.0 | 0.00 | 0.00 | 0.00 | 39 | 1011.5 |
| 20260503234242 | 58 | 352 | 7.0 | 17.0 | 0.00 | 0.00 | 0.00 | 39 | 1011.5 |
| 20260503233746 | 59 | 351 | 7.0 | 17.0 | 0.00 | 0.00 | 0.00 | 38 | 1011.6 |
| 20260503233239 | 59 | 333 | 8.0 | 18.0 | 0.00 | 0.00 | 0.00 | 38 | 1011.5 |
| 20260503232738 | 59 | 337 | 8.0 | 18.0 | 0.00 | 0.00 | 0.00 | 37 | 1011.3 |
| 20260503232238 | 59 | 349 | 8.0 | 15.0 | 0.00 | 0.00 | 0.00 | 37 | 1011.3 |
| 20260503231739 | 59 | 320 | 7.0 | 14.0 | 0.00 | 0.00 | 0.00 | 37 | 1011.4 |
| 20260503231236 | 60 | 15 | 8.0 | 23.0 | 0.00 | 0.00 | 0.00 | 37 | 1011.2 |
| 20260503230736 | 60 | 313 | 9.0 | 23.0 | 0.00 | 0.00 | 0.00 | 36 | 1011.3 |
| 20260503230237 | 61 | 13 | 8.0 | 18.0 | 0.00 | 0.00 | 0.00 | 36 | 1011.2 |
| 20260503225737 | 61 | 343 | 8.0 | 18.0 | 0.00 | 0.00 | 0.00 | 35 | 1011.0 |
| 20260503225237 | 61 | 349 | 9.0 | 23.0 | 0.00 | 0.00 | 0.00 | 34 | 1010.7 |
| 20260503224737 | 61 | 334 | 9.0 | 23.0 | 0.00 | 0.00 | 0.00 | 34 | 1010.9 |
| 20260503224237 | 61 | 341 | 8.0 | 20.0 | 0.00 | 0.00 | 0.00 | 34 | 1010.6 |
| 20260503223737 | 61 | 353 | 7.0 | 15.0 | 0.00 | 0.00 | 0.00 | 34 | 1010.7 |
| 20260503223238 | 62 | 338 | 8.0 | 20.0 | 0.00 | 0.00 | 0.00 | 34 | 1010.8 |
| 20260503222736 | 62 | 340 | 8.0 | 20.0 | 0.00 | 0.00 | 0.00 | 34 | 1010.7 |
| 20260503222236 | 61 | 329 | 8.0 | 16.0 | 0.00 | 0.00 | 0.00 | 34 | 1010.7 |
| 20260503221737 | 61 | 324 | 9.0 | 20.0 | 0.00 | 0.00 | 0.00 | 34 | 1010.5 |
| 20260503221237 | 61 | 324 | 8.0 | 20.0 | 0.00 | 0.00 | 0.00 | 34 | 1010.7 |
| 20260503220237 | 61 | 279 | 8.0 | 18.0 | 0.00 | 0.00 | 0.00 | 33 | 1010.6 |
| 20260503215737 | 62 | 348 | 8.0 | 18.0 | 0.00 | 0.00 | 0.00 | 33 | 1010.5 |
| 20260503215237 | 61 | 320 | 8.0 | 14.0 | 0.00 | 0.00 | 0.00 | 34 | 1010.3 |
| 20260503214738 | 61 | 343 | 8.0 | 20.0 | 0.00 | 0.00 | 0.00 | 34 | 1010.3 |
| 20260503214237 | 61 | 348 | 8.0 | 20.0 | 0.00 | 0.00 | 0.00 | 34 | 1010.6 |
| 20260503213735 | 61 | 327 | 8.0 | 18.0 | 0.00 | 0.00 | 0.00 | 35 | 1010.5 |
| 20260503213235 | 61 | 338 | 8.0 | 18.0 | 0.00 | 0.00 | 0.00 | 35 | 1010.5 |
| 20260503212235 | 61 | 324 | 9.0 | 21.0 | 0.00 | 0.00 | 0.00 | 35 | 1010.5 |
| 20260503211234 | 61 | 327 | 9.0 | 17.0 | 0.00 | 0.00 | 0.00 | 35 | 1010.8 |
| 20260503210736 | 61 | 342 | 8.0 | 16.0 | 0.00 | 0.00 | 0.00 | 35 | 1010.6 |
| 20260503210235 | 61 | 336 | 8.0 | 17.0 | 0.00 | 0.00 | 0.00 | 35 | 1010.7 |
| 20260503205735 | 61 | 1 | 8.0 | 17.0 | 0.00 | 0.00 | 0.00 | 35 | 1010.7 |
| 20260503205235 | 61 | 358 | 8.0 | 20.0 | 0.00 | 0.00 | 0.00 | 35 | 1010.6 |
| 20260503204733 | 61 | 331 | 9.0 | 20.0 | 0.00 | 0.00 | 0.00 | 35 | 1010.6 |
| 20260503204234 | 61 | 331 | 9.0 | 17.0 | 0.00 | 0.00 | 0.00 | 34 | 1010.7 |
| 20260503203731 | 61 | 347 | 9.0 | 22.0 | 0.00 | 0.00 | 0.00 | 35 | 1010.6 |
| 20260503203231 | 62 | 2 | 9.0 | 22.0 | 0.00 | 0.00 | 0.00 | 35 | 1010.6 |
| 20260503202731 | 62 | 15 | 8.0 | 16.0 | 0.00 | 0.00 | 0.00 | 34 | 1010.5 |
| 20260503202232 | 62 | 343 | 9.0 | 17.0 | 0.00 | 0.00 | 0.00 | 34 | 1010.6 |
| 20260503201231 | 63 | 338 | 10.0 | 23.0 | 0.00 | 0.00 | 0.00 | 33 | 1010.6 |
| 20260503200731 | 63 | 301 | 9.0 | 23.0 | 0.00 | 0.00 | 0.00 | 33 | 1010.3 |
| 20260503200231 | 64 | 341 | 8.0 | 20.0 | 0.00 | 0.00 | 0.00 | 32 | 1010.5 |
| 20260503195731 | 63 | 330 | 8.0 | 20.0 | 0.00 | 0.00 | 0.00 | 32 | 1010.0 |
| 20260503194730 | 63 | 338 | 9.0 | 18.0 | 0.00 | 0.00 | 0.00 | 33 | 1010.2 |
| 20260503194229 | 64 | 333 | 10.0 | 20.0 | 0.00 | 0.00 | 0.00 | 33 | 1010.3 |
| 20260503193729 | 64 | 335 | 11.0 | 20.0 | 0.00 | 0.00 | 0.00 | 32 | 1010.0 |
| 20260503193229 | 65 | 343 | 10.0 | 19.0 | 0.00 | 0.00 | 0.00 | 33 | 1010.3 |
| 20260503192730 | 66 | 336 | 8.0 | 18.0 | 0.00 | 0.00 | 0.00 | 32 | 1010.0 |
| 20260503192229 | 66 | 331 | 8.0 | 18.0 | 0.00 | 0.00 | 0.00 | 31 | 1009.4 |
| 20260503191729 | 66 | 329 | 8.0 | 18.0 | 0.00 | 0.00 | 0.00 | 32 | 1010.0 |
| 20260503190730 | 67 | 350 | 8.0 | 21.0 | 0.00 | 0.00 | 0.00 | 31 | 1009.8 |
| 20260503190229 | 67 | 343 | 10.0 | 24.0 | 0.00 | 0.00 | 0.00 | 31 | 1009.8 |
| 20260503185730 | 67 | 358 | 10.0 | 24.0 | 0.00 | 0.00 | 0.00 | 30 | 1009.7 |
| 20260503185233 | 67 | 332 | 8.0 | 17.0 | 0.00 | 0.00 | 0.00 | 31 | 1009.5 |
| 20260503184728 | 66 | 12 | 8.0 | 18.0 | 0.00 | 0.00 | 0.00 | 32 | 1009.8 |
| 20260503184229 | 67 | 332 | 7.0 | 18.0 | 0.00 | 0.00 | 0.00 | 31 | 1009.7 |
| 20260503183729 | 67 | 311 | 7.0 | 15.0 | 0.00 | 0.00 | 0.00 | 31 | 1010.2 |
| 20260503183229 | 67 | 329 | 8.0 | 15.0 | 0.00 | 0.00 | 0.00 | 31 | 1009.4 |
| 20260503182728 | 67 | 337 | 9.0 | 17.0 | 0.00 | 0.00 | 0.00 | 31 | 1009.7 |
| 20260503181729 | 67 | 336 | 8.0 | 18.0 | 0.00 | 0.00 | 0.00 | 31 | 1009.7 |
| 20260503180726 | 67 | 352 | 7.0 | 18.0 | 0.00 | 0.00 | 0.00 | 31 | 1009.5 |
| 20260503180226 | 67 | 313 | 7.0 | 17.0 | 0.00 | 0.00 | 0.00 | 32 | 1010.1 |
| 20260503175728 | 67 | 1 | 8.0 | 17.0 | 0.00 | 0.00 | 0.00 | 32 | 1009.8 |
| 20260503175227 | 66 | 347 | 9.0 | 18.0 | 0.00 | 0.00 | 0.00 | 32 | 1009.7 |
| 20260503174727 | 66 | 349 | 10.0 | 19.0 | 0.00 | 0.00 | 0.00 | 32 | 1009.7 |
| 20260503174227 | 66 | 335 | 10.0 | 19.0 | 0.00 | 0.00 | 0.00 | 32 | 1009.5 |
| 20260503173727 | 66 | 326 | 10.0 | 19.0 | 0.00 | 0.00 | 0.00 | 32 | 1009.8 |
| 20260503173227 | 66 | 357 | 9.0 | 20.0 | 0.00 | 0.00 | 0.00 | 32 | 1009.6 |
| 20260503172727 | 66 | 329 | 8.0 | 20.0 | 0.00 | 0.00 | 0.00 | 31 | 1009.6 |
| 20260503171728 | 66 | 323 | 8.0 | 15.0 | 0.00 | 0.00 | 0.00 | 33 | 1009.5 |
| 20260503171227 | 66 | 340 | 7.0 | 15.0 | 0.00 | 0.00 | 0.00 | 33 | 1009.6 |
| 20260503170727 | 65 | 345 | 7.0 | 15.0 | 0.00 | 0.00 | 0.00 | 34 | 1009.5 |
| 20260503170224 | 65 | 348 | 7.0 | 15.0 | 0.00 | 0.00 | 0.00 | 34 | 1009.6 |
| 20260503150716 | 60 | 325 | 6.0 | 13.0 | 0.00 | 0.00 | 0.00 | 42 | 1009.3 |
| 20260503150216 | 60 | 326 | 7.0 | 15.0 | 0.00 | 0.00 | 0.00 | 42 | 1009.4 |
| 20260503140213 | 56 | 290 | 5.0 | 11.0 | 0.00 | 0.00 | 0.00 | 45 | 1009.3 |
| 20260503131208 | 51 | 278 | 3.0 | 7.0 | 0.00 | 0.00 | 0.00 | 50 | 1009.4 |
| 20260503130707 | 51 | 279 | 3.0 | 7.0 | 0.00 | 0.00 | 0.00 | 50 | 1009.4 |
| 20260503130208 | 51 | 300 | 2.0 | 7.0 | 0.00 | 0.00 | 0.00 | 51 | 1009.5 |
| 20260503120151 | 51 | 297 | 2.0 | 6.0 | 0.00 | 0.00 | 0.00 | 50 | 1009.7 |
| 20260503110648 | 50 | 214 | 2.0 | 4.0 | 0.00 | 0.00 | 0.00 | 49 | 1009.7 |
| 20260503110146 | 50 | 218 | 2.0 | 4.0 | 0.00 | 0.00 | 0.00 | 49 | 1009.8 |
| 20260503090140 | 51 | 211 | 2.0 | 4.0 | 0.00 | 0.00 | 0.00 | 46 | 1010.5 |
| 20260503081139 | 53 | 252 | 2.0 | 5.0 | 0.00 | 0.00 | 0.00 | 44 | 1010.9 |
| 20260503080640 | 53 | 240 | 2.0 | 4.0 | 0.00 | 0.00 | 0.00 | 44 | 1011.0 |
| 20260503080140 | 54 | 225 | 2.0 | 4.0 | 0.00 | 0.00 | 0.00 | 43 | 1011.0 |
| 20260503072637 | 56 | 319 | 3.0 | 8.0 | 0.00 | 0.00 | 0.00 | 40 | 1010.9 |
| 20260503072138 | 56 | 306 | 4.0 | 8.0 | 0.00 | 0.00 | 0.00 | 40 | 1010.9 |
| 20260503071637 | 56 | 299 | 4.0 | 7.0 | 0.00 | 0.00 | 0.00 | 40 | 1010.9 |
| 20260503071138 | 56 | 321 | 4.0 | 7.0 | 0.00 | 0.00 | 0.00 | 40 | 1010.9 |
| 20260503054627 | 58 | 238 | 3.0 | 7.0 | 0.00 | 0.00 | 0.00 | 39 | 1010.5 |
| 20260503054127 | 58 | 214 | 3.0 | 7.0 | 0.00 | 0.00 | 0.00 | 39 | 1010.2 |
| 20260503053627 | 58 | 265 | 3.0 | 7.0 | 0.00 | 0.00 | 0.00 | 40 | 1010.2 |
| 20260503053125 | 58 | 249 | 3.0 | 7.0 | 0.00 | 0.00 | 0.00 | 40 | 1010.1 |
| 20260503052631 | 58 | 229 | 3.0 | 6.0 | 0.00 | 0.00 | 0.00 | 41 | 1010.2 |
| 20260503052126 | 58 | 219 | 3.0 | 6.0 | 0.00 | 0.00 | 0.00 | 41 | 1010.2 |
| 20260503051626 | 58 | 224 | 2.0 | 5.0 | 0.00 | 0.00 | 0.00 | 41 | 1010.2 |
| 20260503050625 | 57 | 197 | 2.0 | 5.0 | 0.00 | 0.00 | 0.00 | 41 | 1010.2 |
| 20260503050125 | 57 | 198 | 2.0 | 5.0 | 0.00 | 0.00 | 0.00 | 42 | 1010.1 |
| 20260503045624 | 57 | 186 | 1.0 | 4.0 | 0.00 | 0.00 | 0.00 | 43 | 1010.3 |
| 20260503045125 | 58 | 178 | 0.0 | 2.0 | 0.00 | 0.00 | 0.00 | 43 | 1010.7 |
| 20260503044623 | 58 | 350 | 1.0 | 4.0 | 0.00 | 0.00 | 0.00 | 42 | 1010.8 |
| 20260503043620 | 59 | 198 | 1.0 | 3.0 | 0.00 | 0.00 | 0.00 | 41 | 1010.5 |
| 20260503042620 | 60 | 0 | 1.0 | 3.0 | 0.00 | 0.00 | 0.00 | 39 | 1010.6 |
| 20260503042123 | 61 | 186 | 1.0 | 4.0 | 0.00 | 0.00 | 0.00 | 37 | 1010.6 |
| 20260503041118 | 62 | 156 | 2.0 | 4.0 | 0.00 | 0.00 | 0.00 | 37 | 1010.2 |
| 20260503040617 | 62 | 142 | 2.0 | 4.0 | 0.00 | 0.00 | 0.00 | 37 | 1010.2 |
| 20260503040118 | 62 | 291 | 2.0 | 4.0 | 0.00 | 0.00 | 0.00 | 36 | 1010.1 |